{"data":{"norad_id":64729,"epoch":"2026-05-25T03:07:06.156768Z","epoch_age_seconds":66982,"freshness":"FRESH","line1":"1 64729U 25144F   26145.12993237  .00012096  00000+0  41977-3 0  9996","line2":"2 64729  53.1583 186.0986 0001181  84.5712 275.5423 15.30205421 51413","mean_motion":15.30205421,"eccentricity":0.0001181,"inclination_deg":53.1583,"raan_deg":186.0986,"arg_perigee_deg":84.5712,"mean_anomaly_deg":275.5423,"bstar":0.00041977,"rev_number":5141,"period_min":94.105012323048,"perigee_km":474.38950437043,"apogee_km":476.00826230607,"semimajor_km":6853.3358833382,"source":"CELESTRAK","updated_at":"2026-05-25T13:38:20.544027Z"}}